Check out our new BloomSky Weather System.

Active alerts

Galveston, TX
  Details for Galveston, TX Coastal Flood Advisory  +3 additional alerts
Houston, TX
  Details for Houston, TX Flash Flood Watch
Fort Bend, TX
  Details for Fort Bend, TX Flash Flood Watch


Thunder radar  blitzortung!


Rain radar more information rain snow radar


Visit our other weather sites:

Template documentation
and downloads

And another site



Weather Underground History page Text

Daily Summary for January 26, 2017 Units:  English    Metric   Both
« Previous Day
Next Day »
Daily Weekly Monthly Yearly Custom
  High: Low: Average:
Temperature: TemperatureF °F 41.0 °F 49.7 °F
Dew Point: DewpointF °F 28.8 °F 32.8 °F
Humidity: Humidity % 34 % 54 %
Wind Speed: WindSpeedMPH mph 0.0 mph 2.3 mph
Wind Gust: WindSpeedGustMPH mph - -
Wind:- - West
Pressure: PressureIn in 30.10 in -
Precipitation: 0.00 in    
Historical Graphs
 
 
Tabular Data for January 26, 2017
Time Temperature Dew Point Pressure Wind Wind Speed Wind Gust Humidity Rainfall Rate (Hourly)
TemperatureF °F DewpointF °F PressureIn in Calm     Humidity % HourlyPrecipIn in
00:01 54.3 °F 35.6 °F 30.10 in NNW 5.0 mph 14.0 mph 49 % 0.00 in
00:06 54.1 °F 35.4 °F 30.10 in NW 5.0 mph 14.0 mph 49 % 0.00 in
00:11 54.0 °F 35.8 °F 30.10 in WNW 5.0 mph 13.0 mph 50 % 0.00 in
00:16 54.0 °F 35.8 °F 30.10 in WNW 4.0 mph 13.0 mph 50 % 0.00 in
00:21 53.8 °F 35.6 °F 30.10 in WNW 5.0 mph 10.0 mph 50 % 0.00 in
00:26 53.8 °F 36.1 °F 30.10 in North 7.0 mph 16.0 mph 51 % 0.00 in
00:31 53.6 °F 36.0 °F 30.10 in NNW 8.0 mph 16.0 mph 51 % 0.00 in
00:36 53.4 °F 35.8 °F 30.11 in WNW 6.0 mph 16.0 mph 51 % 0.00 in
00:41 53.4 °F 35.2 °F 30.11 in West 3.0 mph 13.0 mph 50 % 0.00 in
00:46 53.2 °F 35.1 °F 30.11 in NNW 6.0 mph 13.0 mph 50 % 0.00 in
00:51 53.2 °F 35.1 °F 30.11 in NNW 4.0 mph 13.0 mph 50 % 0.00 in
00:56 53.1 °F 35.4 °F 30.11 in NNW 8.0 mph 12.0 mph 51 % 0.00 in
01:01 52.9 °F 34.7 °F 30.11 in WNW 9.0 mph 12.0 mph 50 % 0.00 in
01:06 52.9 °F 35.2 °F 30.11 in NW 4.0 mph 12.0 mph 51 % 0.00 in
01:11 52.9 °F 35.2 °F 30.11 in NW 2.0 mph 12.0 mph 51 % 0.00 in
01:16 52.5 °F 34.9 °F 30.11 in NNW 2.0 mph 12.0 mph 51 % 0.00 in
01:21 52.5 °F 33.4 °F 30.11 in North 7.0 mph 14.0 mph 48 % 0.00 in
01:26 52.5 °F 33.4 °F 30.11 in NW 6.0 mph 14.0 mph 48 % 0.00 in
01:31 52.5 °F 32.9 °F 30.11 in North 9.0 mph 18.0 mph 47 % 0.00 in
01:36 52.3 °F 32.7 °F 30.11 in NNW 8.0 mph 18.0 mph 47 % 0.00 in
01:41 52.3 °F 32.7 °F 30.11 in WNW 7.0 mph 18.0 mph 47 % 0.00 in
01:46 52.2 °F 33.1 °F 30.11 in NNW 5.0 mph 13.0 mph 48 % 0.00 in
01:51 52.2 °F 33.1 °F 30.11 in NW 3.0 mph 13.0 mph 48 % 0.00 in
01:56 52.0 °F 32.9 °F 30.11 in NNW 7.0 mph 13.0 mph 48 % 0.00 in
02:01 52.0 °F 32.9 °F 30.11 in NNW 7.0 mph 13.0 mph 48 % 0.00 in
02:06 51.8 °F 32.7 °F 30.11 in NNW 5.0 mph 13.0 mph 48 % 0.00 in
02:11 51.6 °F 33.1 °F 30.11 in NNW 5.0 mph 13.0 mph 49 % 0.00 in
02:16 51.4 °F 32.9 °F 30.12 in WNW 4.0 mph 11.0 mph 49 % 0.00 in
02:21 51.4 °F 33.4 °F 30.12 in WNW 3.0 mph 11.0 mph 50 % 0.00 in
02:26 51.3 °F 33.3 °F 30.12 in NNW 5.0 mph 10.0 mph 50 % 0.00 in
02:31 51.1 °F 32.5 °F 30.12 in NNW 5.0 mph 12.0 mph 49 % 0.00 in
02:36 50.9 °F 32.9 °F 30.12 in NW 4.0 mph 12.0 mph 50 % 0.00 in
02:41 50.7 °F 32.7 °F 30.13 in NW 6.0 mph 12.0 mph 50 % 0.00 in
02:46 50.5 °F 32.5 °F 30.13 in NW 3.0 mph 9.0 mph 50 % 0.00 in
02:51 50.4 °F 32.4 °F 30.13 in NW 6.0 mph 9.0 mph 50 % 0.00 in
02:56 50.4 °F 32.4 °F 30.13 in NW 6.0 mph 10.0 mph 50 % 0.00 in
03:01 50.2 °F 32.2 °F 30.13 in North 5.0 mph 12.0 mph 50 % 0.00 in
03:06 50.0 °F 32.2 °F 30.13 in WNW 2.0 mph 12.0 mph 50 % 0.00 in
03:11 49.8 °F 32.0 °F 30.14 in NW 4.0 mph 12.0 mph 50 % 0.00 in
03:16 49.6 °F 31.8 °F 30.14 in North 2.0 mph 10.0 mph 50 % 0.00 in
03:21 49.6 °F 31.8 °F 30.13 in North 4.0 mph 11.0 mph 50 % 0.00 in
03:26 49.6 °F 31.8 °F 30.14 in NNW 7.0 mph 12.0 mph 50 % 0.00 in
03:31 49.6 °F 31.8 °F 30.14 in NW 4.0 mph 18.0 mph 50 % 0.00 in
03:37 49.5 °F 31.1 °F 30.13 in NNW 10.0 mph 18.0 mph 49 % 0.00 in
03:42 49.5 °F 31.1 °F 30.14 in NW 5.0 mph 18.0 mph 49 % 0.00 in
03:47 49.5 °F 31.6 °F 30.14 in North 4.0 mph 10.0 mph 50 % 0.00 in
03:52 49.3 °F 30.9 °F 30.14 in NW 6.0 mph 10.0 mph 49 % 0.00 in
03:57 49.3 °F 30.9 °F 30.14 in NW 11.0 mph 11.0 mph 49 % 0.00 in
04:02 49.3 °F 30.9 °F 30.14 in North 8.0 mph 16.0 mph 49 % 0.00 in
04:07 49.3 °F 31.5 °F 30.14 in NW 2.0 mph 16.0 mph 50 % 0.00 in
04:12 49.1 °F 31.3 °F 30.14 in North 3.0 mph 16.0 mph 50 % 0.00 in
04:17 48.9 °F 31.1 °F 30.15 in NNE 1.0 mph 8.0 mph 50 % 0.00 in
04:22 48.9 °F 30.6 °F 30.15 in NW 4.0 mph 9.0 mph 49 % 0.00 in
04:27 48.9 °F 30.6 °F 30.16 in West 4.0 mph 10.0 mph 49 % 0.00 in
04:32 48.7 °F 30.4 °F 30.15 in NW 4.0 mph 10.0 mph 49 % 0.00 in
04:37 48.7 °F 30.9 °F 30.16 in NW 2.0 mph 10.0 mph 50 % 0.00 in
04:42 48.6 °F 30.7 °F 30.16 in NW 2.0 mph 11.0 mph 50 % 0.00 in
04:47 48.6 °F 30.7 °F 30.17 in NNW 3.0 mph 11.0 mph 50 % 0.00 in
04:52 48.4 °F 31.1 °F 30.17 in North 2.0 mph 11.0 mph 51 % 0.00 in
04:57 48.2 °F 31.5 °F 30.17 in Calm   9.0 mph 52 % 0.00 in
05:02 48.0 °F 31.3 °F 30.17 in Calm   6.0 mph 52 % 0.00 in
05:07 48.0 °F 31.3 °F 30.17 in NW 1.0 mph 5.0 mph 52 % 0.00 in
05:12 48.0 °F 31.3 °F 30.17 in North 2.0 mph 6.0 mph 52 % 0.00 in
05:17 47.8 °F 31.1 °F 30.17 in Calm   6.0 mph 52 % 0.00 in
05:22 47.8 °F 31.5 °F 30.18 in Calm   6.0 mph 53 % 0.00 in
05:27 47.7 °F 30.9 °F 30.19 in Calm   4.0 mph 52 % 0.00 in
05:32 47.7 °F 31.3 °F 30.19 in Calm   4.0 mph 53 % 0.00 in
05:37 47.7 °F 31.3 °F 30.19 in Calm   4.0 mph 53 % 0.00 in
05:42 47.5 °F 31.3 °F 30.19 in North 1.0 mph 5.0 mph 53 % 0.00 in
05:47 47.5 °F 31.3 °F 30.19 in Calm   5.0 mph 53 % 0.00 in
05:52 47.5 °F 31.3 °F 30.19 in ENE 1.0 mph 5.0 mph 53 % 0.00 in
05:57 47.3 °F 31.5 °F 30.20 in NNE 1.0 mph 6.0 mph 54 % 0.00 in
06:02 47.3 °F 31.5 °F 30.20 in Calm   6.0 mph 54 % 0.00 in
06:07 47.1 °F 31.3 °F 30.21 in Calm   6.0 mph 54 % 0.00 in
06:12 47.1 °F 31.8 °F 30.21 in Calm   3.0 mph 55 % 0.00 in
06:17 46.9 °F 31.6 °F 30.21 in NE 2.0 mph 2.0 mph 55 % 0.00 in
06:22 46.9 °F 32.0 °F 30.21 in NNW 1.0 mph 2.0 mph 56 % 0.00 in
06:27 46.8 °F 31.5 °F 30.22 in NW 3.0 mph 5.0 mph 55 % 0.00 in
06:32 46.8 °F 31.5 °F 30.22 in North 2.0 mph 5.0 mph 55 % 0.00 in
06:37 46.8 °F 31.5 °F 30.22 in NW 2.0 mph 5.0 mph 55 % 0.00 in
06:42 46.8 °F 31.5 °F 30.23 in NW 1.0 mph 5.0 mph 55 % 0.00 in
06:47 46.8 °F 31.5 °F 30.23 in NW 3.0 mph 5.0 mph 55 % 0.00 in
06:52 46.8 °F 31.8 °F 30.23 in NNE 1.0 mph 5.0 mph 56 % 0.00 in
06:57 46.8 °F 31.8 °F 30.23 in NNW 1.0 mph 5.0 mph 56 % 0.00 in
07:02 46.6 °F 31.6 °F 30.24 in NW 2.0 mph 5.0 mph 56 % 0.00 in
07:07 46.6 °F 32.2 °F 30.24 in NNW 2.0 mph 4.0 mph 57 % 0.00 in
07:12 46.4 °F 32.0 °F 30.24 in Calm   4.0 mph 57 % 0.00 in
07:17 46.4 °F 32.0 °F 30.24 in NNW 1.0 mph 3.0 mph 57 % 0.00 in
07:22 46.2 °F 31.8 °F 30.25 in NW 2.0 mph 3.0 mph 57 % 0.00 in
07:27 46.2 °F 32.2 °F 30.25 in NNW 1.0 mph 3.0 mph 58 % 0.00 in
07:32 46.4 °F 32.4 °F 30.25 in NNW 2.0 mph 3.0 mph 58 % 0.00 in
07:37 46.2 °F 32.2 °F 30.25 in NNW 2.0 mph 3.0 mph 58 % 0.00 in
07:42 46.2 °F 31.8 °F 30.25 in NW 2.0 mph 4.0 mph 57 % 0.00 in
07:47 46.6 °F 32.2 °F 30.25 in NNW 1.0 mph 5.0 mph 57 % 0.00 in
07:52 46.6 °F 31.6 °F 30.25 in NW 2.0 mph 5.0 mph 56 % 0.00 in
07:57 46.8 °F 31.8 °F 30.25 in NW 3.0 mph 7.0 mph 56 % 0.00 in
08:02 46.9 °F 31.6 °F 30.25 in NW 2.0 mph 7.0 mph 55 % 0.00 in
08:08 46.9 °F 31.6 °F 30.25 in NW 1.0 mph 7.0 mph 55 % 0.00 in
08:13 46.9 °F 31.6 °F 30.25 in NNW 4.0 mph 6.0 mph 55 % 0.00 in
08:18 47.1 °F 31.8 °F 30.26 in NW 1.0 mph 5.0 mph 55 % 0.00 in
08:23 47.3 °F 32.0 °F 30.26 in NW 2.0 mph 5.0 mph 55 % 0.00 in
08:28 47.5 °F 31.6 °F 30.27 in NNW 1.0 mph 5.0 mph 54 % 0.00 in
08:33 47.7 °F 31.3 °F 30.27 in NNW 4.0 mph 5.0 mph 53 % 0.00 in
08:38 47.8 °F 31.5 °F 30.27 in Calm   5.0 mph 53 % 0.00 in
08:43 48.0 °F 32.2 °F 30.27 in North 3.0 mph 6.0 mph 54 % 0.00 in
08:48 48.4 °F 32.0 °F 30.28 in NNW 1.0 mph 6.0 mph 53 % 0.00 in
08:53 48.6 °F 31.8 °F 30.27 in NNW 1.0 mph 6.0 mph 52 % 0.00 in
08:58 48.6 °F 31.3 °F 30.28 in NNW 2.0 mph 5.0 mph 51 % 0.00 in
09:03 48.6 °F 30.7 °F 30.29 in NNW 4.0 mph 5.0 mph 50 % 0.00 in
09:08 48.6 °F 30.2 °F 30.29 in NNE 2.0 mph 5.0 mph 49 % 0.00 in
09:13 48.7 °F 30.4 °F 30.29 in NNE 5.0 mph 5.0 mph 49 % 0.00 in
09:18 48.7 °F 30.4 °F 30.29 in NE 3.0 mph 6.0 mph 49 % 0.00 in
09:23 48.7 °F 30.4 °F 30.29 in NNW 2.0 mph 6.0 mph 49 % 0.00 in
09:28 48.9 °F 30.0 °F 30.29 in NNE 4.0 mph 6.0 mph 48 % 0.00 in
09:33 48.7 °F 30.4 °F 30.30 in NW 3.0 mph 7.0 mph 49 % 0.00 in
09:38 48.9 °F 30.6 °F 30.30 in NW 6.0 mph 7.0 mph 49 % 0.00 in
09:43 49.1 °F 30.7 °F 30.30 in NNE 3.0 mph 7.0 mph 49 % 0.00 in
09:48 49.1 °F 30.7 °F 30.30 in NNW 2.0 mph 6.0 mph 49 % 0.00 in
09:53 48.9 °F 31.1 °F 30.30 in NW 2.0 mph 7.0 mph 50 % 0.00 in
09:58 49.1 °F 30.2 °F 30.30 in North 5.0 mph 7.0 mph 48 % 0.00 in
10:03 48.9 °F 31.1 °F 30.30 in NNE 4.0 mph 8.0 mph 50 % 0.00 in
10:08 48.9 °F 30.6 °F 30.30 in NNE 3.0 mph 8.0 mph 49 % 0.00 in
10:13 48.9 °F 30.6 °F 30.31 in NNE 3.0 mph 9.0 mph 49 % 0.00 in
10:18 49.1 °F 30.7 °F 30.31 in NNE 2.0 mph 9.0 mph 49 % 0.00 in
10:23 49.3 °F 30.4 °F 30.31 in NNW 5.0 mph 9.0 mph 48 % 0.00 in
10:28 49.5 °F 31.1 °F 30.32 in West 1.0 mph 8.0 mph 49 % 0.00 in
10:33 49.5 °F 31.1 °F 30.31 in North 4.0 mph 10.0 mph 49 % 0.00 in
10:38 49.6 °F 31.3 °F 30.31 in North 2.0 mph 10.0 mph 49 % 0.00 in
10:43 50.0 °F 31.6 °F 30.32 in NW 1.0 mph 10.0 mph 49 % 0.00 in
10:48 50.2 °F 30.7 °F 30.32 in NW 5.0 mph 7.0 mph 47 % 0.00 in
10:53 50.5 °F 30.6 °F 30.32 in NW 5.0 mph 8.0 mph 46 % 0.00 in
10:58 50.7 °F 30.7 °F 30.31 in NNE 6.0 mph 9.0 mph 46 % 0.00 in
11:03 50.9 °F 30.4 °F 30.31 in NNE 5.0 mph 9.0 mph 45 % 0.00 in
11:08 51.1 °F 30.6 °F 30.31 in NW 3.0 mph 10.0 mph 45 % 0.00 in
11:13 51.1 °F 29.8 °F 30.31 in WNW 6.0 mph 10.0 mph 44 % 0.00 in
11:18 51.1 °F 29.8 °F 30.31 in NW 4.0 mph 11.0 mph 44 % 0.00 in
11:23 51.1 °F 29.8 °F 30.31 in NNW 3.0 mph 11.0 mph 44 % 0.00 in
11:28 51.3 °F 30.0 °F 30.31 in NNE 3.0 mph 11.0 mph 44 % 0.00 in
11:33 51.8 °F 30.6 °F 30.30 in NE 5.0 mph 10.0 mph 44 % 0.00 in
11:38 52.3 °F 29.8 °F 30.30 in NW 5.0 mph 10.0 mph 42 % 0.00 in
11:43 51.4 °F 29.7 °F 30.30 in NW 2.0 mph 10.0 mph 43 % 0.00 in
11:48 51.6 °F 28.8 °F 30.30 in NW 7.0 mph 10.0 mph 41 % 0.00 in
11:53 52.0 °F 29.7 °F 30.30 in WNW 4.0 mph 12.0 mph 42 % 0.00 in
11:58 52.2 °F 29.8 °F 30.29 in North 5.0 mph 12.0 mph 42 % 0.00 in
12:04 52.3 °F 29.3 °F 30.29 in NNW 1.0 mph 12.0 mph 41 % 0.00 in
12:09 52.9 °F 30.4 °F 30.29 in NNW 3.0 mph 9.0 mph 42 % 0.00 in
12:14 53.1 °F 30.0 °F 30.28 in Calm   9.0 mph 41 % 0.00 in
12:19 53.4 °F 30.4 °F 30.28 in NW 3.0 mph 8.0 mph 41 % 0.00 in
12:24 53.4 °F 29.7 °F 30.27 in NNW 3.0 mph 7.0 mph 40 % 0.00 in
12:29 53.4 °F 29.7 °F 30.27 in NNW 3.0 mph 7.0 mph 40 % 0.00 in
12:34 53.4 °F 29.1 °F 30.27 in West 5.0 mph 8.0 mph 39 % 0.00 in
12:39 53.4 °F 29.1 °F 30.27 in North 3.0 mph 8.0 mph 39 % 0.00 in
12:44 54.0 °F 29.5 °F 30.26 in NNW 3.0 mph 8.0 mph 39 % 0.00 in
12:49 54.0 °F 29.5 °F 30.25 in NNW 4.0 mph 9.0 mph 39 % 0.00 in
12:54 54.1 °F 29.7 °F 30.25 in NNW 5.0 mph 9.0 mph 39 % 0.00 in
12:59 54.3 °F 30.6 °F 30.25 in NNE 4.0 mph 9.0 mph 40 % 0.00 in
13:04 54.3 °F 30.6 °F 30.25 in WNW 3.0 mph 8.0 mph 40 % 0.00 in
13:09 54.9 °F 30.4 °F 30.25 in NNW 4.0 mph 9.0 mph 39 % 0.00 in
13:14 55.0 °F 30.6 °F 30.25 in North 2.0 mph 9.0 mph 39 % 0.00 in
13:19 55.6 °F 31.1 °F 30.24 in NNE 8.0 mph 9.0 mph 39 % 0.00 in
13:24 55.9 °F 30.0 °F 30.25 in NNW 3.0 mph 8.0 mph 37 % 0.00 in
13:29 56.1 °F 30.2 °F 30.24 in NNW 9.0 mph 9.0 mph 37 % 0.00 in
13:34 56.1 °F 30.2 °F 30.24 in NW 4.0 mph 9.0 mph 37 % 0.00 in
13:39 56.5 °F 30.6 °F 30.24 in North 1.0 mph 9.0 mph 37 % 0.00 in
13:44 56.5 °F 30.6 °F 30.23 in WNW 4.0 mph 9.0 mph 37 % 0.00 in
13:49 56.8 °F 30.9 °F 30.22 in NW 1.0 mph 9.0 mph 37 % 0.00 in
13:54 56.8 °F 31.5 °F 30.23 in NW 2.0 mph 8.0 mph 38 % 0.00 in
13:59 57.0 °F 30.9 °F 30.22 in NNW 2.0 mph 8.0 mph 37 % 0.00 in
14:04 57.0 °F 30.9 °F 30.22 in NW 5.0 mph 8.0 mph 37 % 0.00 in
14:09 57.0 °F 30.4 °F 30.23 in NNW 6.0 mph 8.0 mph 36 % 0.00 in
14:14 56.8 °F 30.9 °F 30.23 in NE 4.0 mph 10.0 mph 37 % 0.00 in
14:19 57.0 °F 30.4 °F 30.22 in WNW 2.0 mph 10.0 mph 36 % 0.00 in
14:20 57.0 °F 30.4 °F 30.22 in NNW 4.0 mph 10.0 mph 36 % 0.00 in
14:25 56.7 °F 30.7 °F 30.22 in NW 3.0 mph 10.0 mph 37 % 0.00 in
14:30 56.8 °F 30.2 °F 30.22 in North 4.0 mph 10.0 mph 36 % 0.00 in
14:35 57.2 °F 30.6 °F 30.22 in NNW 4.0 mph 10.0 mph 36 % 0.00 in
14:40 57.6 °F 30.0 °F 30.22 in West 1.0 mph 10.0 mph 35 % 0.00 in
14:45 57.7 °F 30.2 °F 30.22 in NW 2.0 mph 8.0 mph 35 % 0.00 in
14:50 57.9 °F 29.7 °F 30.22 in WNW 2.0 mph 9.0 mph 34 % 0.00 in
14:55 57.9 °F 30.4 °F 30.21 in ENE 3.0 mph 9.0 mph 35 % 0.00 in
15:00 58.3 °F 32.2 °F 30.21 in WNW 4.0 mph 9.0 mph 37 % 0.00 in
15:05 58.5 °F 30.9 °F 30.22 in NW 5.0 mph 10.0 mph 35 % 0.00 in
15:10 58.3 °F 31.5 °F 30.22 in Calm   10.0 mph 36 % 0.00 in
15:15 58.5 °F 32.4 °F 30.21 in NW 3.0 mph 10.0 mph 37 % 0.00 in
15:20 58.5 °F 32.4 °F 30.22 in North 1.0 mph 10.0 mph 37 % 0.00 in
15:25 57.6 °F 31.5 °F 30.21 in NW 3.0 mph 8.0 mph 37 % 0.00 in
15:30 57.2 °F 31.8 °F 30.21 in North 2.0 mph 7.0 mph 38 % 0.00 in
15:35 57.0 °F 31.6 °F 30.21 in NW 1.0 mph 7.0 mph 38 % 0.00 in
15:40 57.4 °F 32.5 °F 30.21 in WNW 3.0 mph 6.0 mph 39 % 0.00 in
15:46 57.6 °F 32.7 °F 30.21 in NW 3.0 mph 6.0 mph 39 % 0.00 in
15:51 57.4 °F 32.5 °F 30.21 in NW 4.0 mph 8.0 mph 39 % 0.00 in
15:56 56.8 °F 32.2 °F 30.21 in NW 3.0 mph 8.0 mph 39 % 0.00 in
16:01 57.2 °F 31.1 °F 30.21 in ENE 2.0 mph 8.0 mph 37 % 0.00 in
16:06 57.4 °F 30.6 °F 30.21 in NNE 4.0 mph 8.0 mph 36 % 0.00 in
16:11 57.2 °F 30.6 °F 30.21 in NE 2.0 mph 8.0 mph 36 % 0.00 in
16:16 57.2 °F 31.1 °F 30.21 in Calm   8.0 mph 37 % 0.00 in
16:21 57.0 °F 30.9 °F 30.21 in NW 6.0 mph 8.0 mph 37 % 0.00 in
16:26 56.5 °F 29.8 °F 30.21 in NW 1.0 mph 8.0 mph 36 % 0.00 in
16:31 56.5 °F 30.6 °F 30.21 in NW 3.0 mph 8.0 mph 37 % 0.00 in
16:36 56.7 °F 31.3 °F 30.21 in NW 1.0 mph 7.0 mph 38 % 0.00 in
16:41 56.5 °F 31.1 °F 30.21 in NW 1.0 mph 7.0 mph 38 % 0.00 in
16:46 56.1 °F 31.5 °F 30.21 in NW 2.0 mph 5.0 mph 39 % 0.00 in
16:51 56.1 °F 31.5 °F 30.21 in Calm   5.0 mph 39 % 0.00 in
16:57 56.1 °F 31.5 °F 30.21 in Calm   4.0 mph 39 % 0.00 in
17:02 56.5 °F 31.8 °F 30.21 in NNW 1.0 mph 4.0 mph 39 % 0.00 in
17:07 56.5 °F 31.8 °F 30.21 in NW 2.0 mph 3.0 mph 39 % 0.00 in
17:12 56.5 °F 31.8 °F 30.21 in NNW 2.0 mph 3.0 mph 39 % 0.00 in
17:17 56.3 °F 31.6 °F 30.21 in Calm   3.0 mph 39 % 0.00 in
17:22 56.1 °F 31.5 °F 30.21 in Calm   3.0 mph 39 % 0.00 in
17:27 55.9 °F 32.0 °F 30.21 in Calm   3.0 mph 40 % 0.00 in
17:32 55.6 °F 31.6 °F 30.21 in Calm   2.0 mph 40 % 0.00 in
17:42 54.3 °F 33.4 °F 30.21 in Calm   1.0 mph 45 % 0.00 in
17:47 53.8 °F 34.0 °F 30.21 in Calm     47 % 0.00 in
17:52 52.9 °F 34.2 °F 30.22 in Calm     49 % 0.00 in
17:57 52.2 °F 34.5 °F 30.22 in Calm     51 % 0.00 in
18:00 52.0 °F 34.9 °F 30.22 in Calm     52 % 0.00 in
18:01 51.8 °F 34.7 °F 30.22 in Calm     52 % 0.00 in
18:04 51.4 °F 34.9 °F 30.22 in Calm     53 % 0.00 in
18:09 50.9 °F 35.2 °F 30.22 in Calm     55 % 0.00 in
18:14 50.4 °F 35.2 °F 30.22 in Calm     56 % 0.00 in
18:19 50.0 °F 35.8 °F 30.22 in Calm     58 % 0.00 in
18:24 49.6 °F 35.4 °F 30.22 in Calm     58 % 0.00 in
18:29 49.3 °F 35.6 °F 30.22 in Calm     59 % 0.00 in
18:34 48.9 °F 35.6 °F 30.22 in Calm     60 % 0.00 in
18:39 48.7 °F 35.1 °F 30.22 in Calm     59 % 0.00 in
18:44 48.0 °F 34.3 °F 30.23 in Calm     59 % 0.00 in
18:49 47.7 °F 34.9 °F 30.22 in Calm     61 % 0.00 in
18:54 47.7 °F 35.6 °F 30.22 in Calm     63 % 0.00 in
18:59 47.5 °F 35.6 °F 30.23 in Calm     63 % 0.00 in
19:04 47.1 °F 36.0 °F 30.23 in Calm     65 % 0.00 in
19:14 47.1 °F 37.0 °F 30.23 in Calm     68 % 0.00 in
19:19 46.8 °F 36.3 °F 30.23 in Calm     67 % 0.00 in
19:24 46.2 °F 36.0 °F 30.23 in Calm     67 % 0.00 in
19:29 45.9 °F 36.3 °F 30.23 in Calm     69 % 0.00 in
19:34 45.9 °F 37.4 °F 30.23 in Calm     72 % 0.00 in
19:39 46.2 °F 37.8 °F 30.24 in Calm     72 % 0.00 in
19:44 46.0 °F 37.2 °F 30.24 in Calm     71 % 0.00 in
19:49 45.5 °F 36.7 °F 30.24 in Calm     71 % 0.00 in
19:54 45.1 °F 36.7 °F 30.24 in Calm     72 % 0.00 in
19:59 44.8 °F 37.0 °F 30.24 in Calm     74 % 0.00 in
20:04 44.8 °F 37.4 °F 30.24 in Calm     75 % 0.00 in
20:09 45.0 °F 37.6 °F 30.24 in Calm     75 % 0.00 in
20:10 45.0 °F 37.6 °F 30.24 in Calm     75 % 0.00 in
20:15 45.0 °F 37.6 °F 30.24 in Calm   1.0 mph 75 % 0.00 in
20:20 45.0 °F 37.6 °F 30.25 in Calm   1.0 mph 75 % 0.00 in
20:25 45.0 °F 37.6 °F 30.25 in Calm   1.0 mph 75 % 0.00 in
20:30 44.8 °F 37.8 °F 30.25 in Calm   1.0 mph 76 % 0.00 in
20:35 44.8 °F 37.8 °F 30.25 in Calm     76 % 0.00 in
20:40 44.4 °F 37.6 °F 30.25 in Calm     77 % 0.00 in
20:45 44.4 °F 37.6 °F 30.25 in Calm     77 % 0.00 in
20:50 44.2 °F 37.8 °F 30.25 in Calm     78 % 0.00 in
20:55 44.1 °F 37.6 °F 30.25 in Calm     78 % 0.00 in
21:00 43.9 °F 37.4 °F 30.25 in Calm     78 % 0.00 in
21:05 43.5 °F 37.0 °F 30.25 in Calm     78 % 0.00 in
21:10 43.0 °F 36.3 °F 30.25 in Calm     77 % 0.00 in
21:16 42.3 °F 36.0 °F 30.25 in Calm     78 % 0.00 in
21:21 41.5 °F 35.6 °F 30.26 in Calm     79 % 0.00 in
21:24 41.7 °F 36.7 °F 30.26 in Calm     82 % 0.00 in
21:26 41.7 °F 36.7 °F 30.26 in Calm     82 % 0.00 in
21:31 42.1 °F 37.2 °F 30.26 in Calm     83 % 0.00 in
21:36 42.4 °F 37.6 °F 30.27 in Calm   1.0 mph 83 % 0.00 in
21:41 42.4 °F 37.6 °F 30.27 in Calm   1.0 mph 83 % 0.00 in
21:46 42.3 °F 37.4 °F 30.27 in Calm   1.0 mph 83 % 0.00 in
21:51 42.3 °F 37.4 °F 30.27 in Calm     83 % 0.00 in
21:56 42.1 °F 37.2 °F 30.27 in Calm     83 % 0.00 in
22:01 41.7 °F 37.2 °F 30.27 in Calm     84 % 0.00 in
22:06 41.7 °F 37.2 °F 30.27 in Calm     84 % 0.00 in
22:11 41.5 °F 37.0 °F 30.27 in Calm     84 % 0.00 in
22:16 41.4 °F 37.2 °F 30.27 in Calm     85 % 0.00 in
22:21 41.5 °F 37.6 °F 30.28 in Calm     86 % 0.00 in
22:26 41.7 °F 37.8 °F 30.27 in Calm   1.0 mph 86 % 0.00 in
22:31 41.7 °F 37.6 °F 30.28 in Calm   1.0 mph 85 % 0.00 in
22:37 41.5 °F 37.4 °F 30.28 in Calm   1.0 mph 85 % 0.00 in
22:42 41.2 °F 36.7 °F 30.28 in Calm     84 % 0.00 in
22:47 41.0 °F 36.9 °F 30.28 in Calm     85 % 0.00 in
22:52 41.2 °F 37.4 °F 30.28 in Calm   1.0 mph 86 % 0.00 in
22:57 41.4 °F 37.2 °F 30.28 in Calm   1.0 mph 85 % 0.00 in
23:02 41.4 °F 37.2 °F 30.28 in Calm   1.0 mph 85 % 0.00 in
23:07 41.4 °F 37.2 °F 30.29 in Calm     85 % 0.00 in
23:12 41.5 °F 37.4 °F 30.29 in Calm   1.0 mph 85 % 0.00 in
23:17 41.9 °F 37.0 °F 30.29 in NNW 1.0 mph 1.0 mph 83 % 0.00 in
23:22 42.3 °F 36.5 °F 30.29 in Calm   1.0 mph 80 % 0.00 in
23:27 42.4 °F 36.3 °F 30.29 in NNW 1.0 mph 1.0 mph 79 % 0.00 in
23:32 42.4 °F 36.1 °F 30.29 in Calm   1.0 mph 78 % 0.00 in
23:37 42.3 °F 35.6 °F 30.29 in Calm   1.0 mph 77 % 0.00 in
23:42 42.1 °F 35.1 °F 30.29 in Calm   1.0 mph 76 % 0.00 in
23:47 41.9 °F 34.5 °F 30.29 in Calm   1.0 mph 75 % 0.00 in
23:52 41.7 °F 34.3 °F 30.30 in Calm     75 % 0.00 in
23:57 41.5 °F 34.2 °F 30.30 in Calm     75 % 0.00 in
Spring, Texas: Villages of Bridgestone
Compliments of Weather Underground - 3.25 mb

Script developed by  Jim McMurry - jmcmurry@mwt.net Adapted for the template by  Wim van der Kuil - Leuven-Template.eu

You find our weather info also at:

UK Metoffice

WeatherCloud

Weather Underground

Mid-South Weather Network

AWEKAS

Citizen Weather Observer Program (CWOP)

HAMweather, WeatherForYou, PWS Weather

Equipment we use:

Weather-station
Davis Vantage Vue

Weather-program
Meteohub

Weather-server
Debian 7.9 x86 (Guest)

Provider
DreamHost

Davis Vantage Vue

Meteohub

Debian 7.9 x86 (Guest)

DreamHost